Location: ??????
(31.2056°N, 45.3906°E)
Time: 13:50:35
(UTC+00:00)

CZ-4C R/B - Pass Details

Date: 09 April 2020
Orbit: 637 x 1365 km, 63.4° (Epoch: 04 June)

Event Time Altitude Azimuth Distance (km) Brightness Sun altitude
Rises 19:10:02 0° 338° (NNW) 3,949 6.4 -42.8°
Reaches altitude 10° 19:12:48 10° 346° (NNW) 3,086 5.6 -43.2°
Enters shadow 19:16:34 29° 7° (N) 2,105 4.4 -43.7°
